TimeCDT,TemperatureF,Dew PointF,Humidity,Sea Level PressureIn,VisibilityMPH,Wind Direction,Wind SpeedMPH,Gust SpeedMPH,PrecipitationIn,Events,Conditions,WindDirDegrees,DateUTC
12:55 AM,21.0,8.1,57,29.93,10.0,South,8.1,-,N/A,,Overcast,190,2014-03-09 06:55:00
1:55 AM,21.9,10.9,63,29.87,10.0,SSW,8.1,-,N/A,,Overcast,200,2014-03-09 07:55:00
3:55 AM,23.0,15.1,72,29.81,10.0,SSW,9.2,-,N/A,,Overcast,200,2014-03-09 08:55:00
4:55 AM,24.1,16.0,71,29.78,10.0,SSW,6.9,-,N/A,,Mostly Cloudy,200,2014-03-09 09:55:00
5:55 AM,25.0,17.1,72,29.75,10.0,SW,13.8,-,N/A,,Clear,220,2014-03-09 10:55:00
6:55 AM,25.0,18.0,75,29.72,10.0,SSW,11.5,-,N/A,,Clear,210,2014-03-09 11:55:00
7:55 AM,26.1,18.0,71,29.69,10.0,SSW,9.2,-,N/A,,Clear,210,2014-03-09 12:55:00
8:55 AM,27.0,19.0,72,29.66,10.0,SSW,11.5,-,N/A,,Clear,210,2014-03-09 13:55:00
9:55 AM,30.0,19.9,66,29.65,10.0,WSW,8.1,-,N/A,,Clear,240,2014-03-09 14:55:00
10:55 AM,33.1,21.9,64,29.61,10.0,SW,10.4,-,N/A,,Clear,220,2014-03-09 15:55:00
11:55 AM,37.0,25.0,62,29.62,10.0,West,10.4,-,N/A,,Clear,260,2014-03-09 16:55:00
12:55 PM,41.0,26.1,55,29.60,10.0,West,8.1,-,N/A,,Clear,280,2014-03-09 17:55:00
1:55 PM,44.1,28.0,53,29.57,10.0,WSW,10.4,-,N/A,,Clear,250,2014-03-09 18:55:00
2:55 PM,45.0,28.0,52,29.56,10.0,West,9.2,-,N/A,,Clear,270,2014-03-09 19:55:00
3:55 PM,45.0,28.0,52,29.56,10.0,WSW,8.1,-,N/A,,Clear,240,2014-03-09 20:55:00
4:55 PM,46.0,28.9,51,29.57,10.0,West,6.9,-,N/A,,Clear,270,2014-03-09 21:55:00
5:55 PM,45.0,28.9,53,29.57,10.0,West,4.6,-,N/A,,Mostly Cloudy,280,2014-03-09 22:55:00
6:55 PM,39.0,30.0,70,29.58,10.0,Calm,Calm,-,N/A,,Overcast,0,2014-03-09 23:55:00
7:55 PM,37.9,30.0,73,29.59,10.0,West,4.6,-,N/A,,Overcast,260,2014-03-10 00:55:00
8:55 PM,39.9,28.9,65,29.60,10.0,WSW,4.6,-,N/A,,Overcast,250,2014-03-10 01:55:00
9:55 PM,37.0,30.0,76,29.58,10.0,SSW,5.8,-,N/A,,Overcast,210,2014-03-10 02:55:00
10:55 PM,37.9,28.9,70,29.58,10.0,WSW,5.8,-,N/A,,Overcast,250,2014-03-10 03:55:00
11:55 PM,36.0,28.9,76,29.57,10.0,West,4.6,-,N/A,,Scattered Clouds,260,2014-03-10 04:55:00
12:55 AM,30.9,27.0,85,29.54,10.0,Calm,Calm,-,N/A,,Clear,0,2014-03-10 05:55:00